Hourly Data Report for October 03, 2017

All times are specified in Local Standard Time (LST). Add 1 hour to adjust for Daylight Saving Time where and when it is observed.

AGASSIZ RCS
BRITISH COLUMBIA

49°14'35.000" N
121°45'37.000" W
19.30 m
1100119
71113
WZA

Download Data

Hourly Data (October 2017)
Hourly Data Report for October 3, 2017
Temp Definition
°C
Dew Point Temp Definition
°C
Rel Hum Definition
%
Wind Dir Definition
10's deg

Wind Spd Definition
km/h
Visibility Definition
km
Stn Press Definition
kPa
Hmdx Definition


Wind Chill Definition


Weather Definition


TIME
00:00 15.5 -1.9 30 35 13   102.37     LegendNANA
01:00 14.8 -1.6 32 3 9   102.40     LegendNANA
02:00 13.6 -0.9 37 34 9   102.40     LegendNANA
03:00 12.9 -0.5 40 31 14   102.41     LegendNANA
04:00 13.5 -1.5 36 1 9   102.45     LegendNANA
05:00 13.0 -1.6 36 32 13   102.42     LegendNANA
06:00 12.1 -1.1 40 31 15   102.44     LegendNANA
07:00 11.4 -0.8 43 34 10   102.50     LegendNANA
08:00 12.2 -0.7 41 35 10   102.54     LegendNANA
09:00 13.0 -0.2 40 3 10   102.52     LegendNANA
10:00 14.6 -0.6 35 32 14   102.50     LegendNANA
11:00 15.8 -1.1 31 34 11   102.41     LegendNANA
12:00 18.2 1.4 32 28 6   102.34     LegendNANA
13:00 18.5 -0.3 28 36 6   102.27     LegendNANA
14:00 19.6 0.5 28 8 5   102.23     LegendNANA
15:00 20.1 -0.3 25 5 3   102.13     LegendNANA
16:00 19.9 2.0 31 17 6   102.08     LegendNANA
17:00 17.0 5.9 48 32 4   102.07     LegendNANA
18:00 12.4 6.7 68 11 2   102.07     LegendNANA
19:00 10.0 5.9 76 26 2   102.11     LegendNANA
20:00 15.0 2.7 44 5 23   102.09     LegendNANA
21:00 14.2 1.8 43 4 19   102.13     LegendNANA
22:00 13.9 0.8 41 4 24   102.10     LegendNANA
23:00 14.2 -0.8 36 3 15   102.10     LegendNANA

Notes on Data Quality.

Legend

  • E = Estimated
  • M = Missing
  • NA = Not Available
  • ‡ = Partner data that is not subject to review by the National Climate Archives
Date modified: